Weather History for Paducah, KY

Change the Weather History Date:

Monday, December 9, 2013

  Actual Average Record
Temperature  
Mean Temperature 27 °F 39 °F  
Max Temperature 33 °F 48 °F 66 °F (1952)
Min Temperature 21 °F 30 °F 7 °F (1995)
Degree Days  
Heating Degree Days 38 26  
Month to date heating degree days 218 223  
Since 1 July heating degree days 1020 1000  
Cooling Degree Days 0 0  
Month to date cooling degree days 0 0  
Year to date cooling degree days 1478 1542  
Moisture  
Dew Point 22 °F    
Average Humidity 77    
Maximum Humidity 92    
Minimum Humidity 61    
Precipitation  
Precipitation T in 0.16 in 2.03 in (1961)
Month to date precipitation 1.57 1.41  
Year to date precipitation 53.77 45.90  
Snow  
Snow T in 0.00 in T in (2013)
Month to date snowfall 5.1 0.4  
Since 1 July snowfall 5.1 0.5  
Snow Depth 2.00 in    
Sea Level Pressure  
Sea Level Pressure 30.24 in    
Wind  
Wind Speed 7 mph (NW)    
Max Wind Speed 13 mph    
Max Gust Speed 16 mph    
Visibility 8 miles    
Events Snow    
T = Trace of Precipitation, MM = Missing Value Source: NWS Daily Summary

Daily Weather History Graph

Daily Weather History Graph

Search for Another Location

Airport:

Trip Planner

Search our weather history database for the weather conditions in past years. The results will help you decide how hot, cold, wet, or windy it might be!

Date:

Astronomy

Dec. 09, 2013 Rise Set
Actual Time 6:57 AM CST 4:38 PM CST
Civil Twilight 6:28 AM CST 5:07 PM CST
Nautical Twilight 5:55 AM CST 5:39 PM CST
Astronomical Twilight 5:24 AM CST 6:11 PM CST
Moon 11:58 AM CST (12/9) No Moon Set
Length of Visible Light 10h 38m
Length of Day
9h 41m
Waxing Crescent, 51% of the Moon is Illuminated
Dec 9
Waxing Crescent
Dec 17
Full
Dec 25
Last Quarter
Jan 1
New
Jan 7
First Quarter

Hourly Weather History & Observations

Time (CST) Temp. Windchill Dew Point Humidity Pressure Visibility Wind Dir Wind Speed Gust Speed Precip Events Conditions
12:53 AM 30.0 °F 20.5 °F 27.0 °F 88% 30.14 in 5.0 mi West 11.5 mph - N/A   Overcast
1:43 AM 30.0 °F 22.4 °F 27.0 °F 88% 30.14 in 2.5 mi West 8.1 mph - 0.00 in Snow Light Snow
1:53 AM 30.0 °F 22.4 °F 26.1 °F 85% 30.16 in 4.0 mi West 8.1 mph - 0.00 in Snow Light Snow
2:19 AM 30.0 °F 23.2 °F 26.1 °F 85% 30.16 in 6.0 mi West 6.9 mph - 0.00 in   Overcast
2:36 AM 30.0 °F 25.2 °F 26.1 °F 85% 30.17 in 7.0 mi West 4.6 mph - 0.00 in   Overcast
2:53 AM 30.0 °F 24.1 °F 26.1 °F 85% 30.18 in 7.0 mi West 5.8 mph - 0.00 in   Overcast
3:53 AM 28.9 °F 22.8 °F 26.1 °F 89% 30.19 in 6.0 mi WSW 5.8 mph - N/A   Overcast
4:40 AM 27.0 °F 21.6 °F 23.0 °F 85% 30.17 in 6.0 mi WSW 4.6 mph - N/A   Scattered Clouds
4:53 AM 25.0 °F 19.3 °F 23.0 °F 92% 30.19 in 6.0 mi WSW 4.6 mph - N/A   Clear
5:53 AM 23.0 °F 17.0 °F 19.9 °F 88% 30.22 in 4.0 mi SW 4.6 mph - N/A   Scattered Clouds
6:00 AM 25.0 °F 19.3 °F 21.9 °F 88% 30.20 in 4.0 mi SW 4.6 mph - N/A   Mostly Cloudy
6:11 AM 25.0 °F 19.3 °F 21.9 °F 88% 30.21 in 4.0 mi SW 4.6 mph - N/A   Scattered Clouds
6:27 AM 21.9 °F - 19.0 °F 89% 30.21 in 3.0 mi North - - N/A   Mostly Cloudy
6:53 AM 25.0 °F 18.1 °F 21.9 °F 88% 30.23 in 4.0 mi SW 5.8 mph - N/A   Overcast
7:53 AM 28.0 °F 24.2 °F 25.0 °F 88% 30.25 in 5.0 mi WSW 3.5 mph - N/A   Overcast
8:53 AM 30.0 °F 25.2 °F 26.1 °F 85% 30.26 in 6.0 mi WSW 4.6 mph - N/A   Overcast
9:53 AM 30.9 °F 27.5 °F 26.1 °F 82% 30.29 in 8.0 mi WNW 3.5 mph - N/A   Overcast
10:53 AM 32.0 °F 26.4 °F 25.0 °F 75% 30.30 in 10.0 mi North 5.8 mph - N/A   Overcast
11:53 AM 32.0 °F 25.6 °F 24.1 °F 73% 30.28 in 10.0 mi North 6.9 mph - N/A   Overcast
12:53 PM 30.9 °F 24.3 °F 21.9 °F 69% 30.28 in 10.0 mi NNW 6.9 mph - N/A   Overcast
1:18 PM 33.1 °F 26.9 °F 21.9 °F 64% 30.26 in 10.0 mi North 6.9 mph - N/A   Scattered Clouds
1:42 PM 33.1 °F 27.7 °F 21.9 °F 64% 30.26 in 10.0 mi NW 5.8 mph - N/A   Mostly Cloudy
1:53 PM 33.1 °F 27.7 °F 21.9 °F 64% 30.27 in 10.0 mi NE 5.8 mph - N/A   Overcast
2:53 PM 32.0 °F 25.6 °F 21.9 °F 66% 30.26 in 10.0 mi ENE 6.9 mph - N/A   Scattered Clouds
3:53 PM 32.0 °F 25.6 °F 21.9 °F 66% 30.27 in 10.0 mi NE 6.9 mph - N/A   Clear
4:53 PM 30.9 °F 24.3 °F 21.0 °F 67% 30.28 in 10.0 mi NNE 6.9 mph - N/A   Clear
5:53 PM 28.0 °F 21.7 °F 19.9 °F 72% 30.27 in 10.0 mi NNE 5.8 mph - N/A   Clear
6:53 PM 28.0 °F 21.7 °F 19.0 °F 69% 30.27 in 10.0 mi North 5.8 mph - N/A   Clear
7:53 PM 28.9 °F 20.4 °F 19.0 °F 67% 30.27 in 10.0 mi North 9.2 mph - N/A   Clear
8:53 PM 28.0 °F 20.0 °F 18.0 °F 66% 30.29 in 10.0 mi North 8.1 mph - N/A   Mostly Cloudy
9:53 PM 27.0 °F 18.7 °F 17.1 °F 66% 30.29 in 10.0 mi North 8.1 mph - N/A   Overcast
10:53 PM 26.1 °F 16.8 °F 16.0 °F 66% 30.25 in 10.0 mi NNE 9.2 mph - N/A   Overcast
11:53 PM 26.1 °F 17.6 °F 16.0 °F 66% 30.26 in 10.0 mi North 8.1 mph - N/A   Overcast